Wind_Speed
41 41 36 37 39 39 40 43 43 44 45 46 45 44 45 44 44 43 42 42 42 44 45 45 46 48 49 51 52 53 55 57 59 59 59 59 59 61 60 60 59 61 63 65
39 38 36 38 37 38 40 43 42 43 43 43 45 43 45 43 41 40 41 42 43 44 46 48 49 51 52 54 56 57 60 60 61 60 60 60 58 59 59 57 58 59 59 61
38 40 38 38 38 39 42 41 43 44 44 44 45 44 44 41 41 40 42 44 45 47 49 50 50 51 53 54 56 57 57 57 56 55 55 56 57 57 56 57 55 59 61 60
41 41 39 40 40 40 42 39 42 42 42 43 44 44 45 44 43 45 46 47 48 50 51 53 55 57 57 56 54 54 52 52 53 54 55 55 55 55 51 52 54 57 56 57
44 41 41 39 37 38 41 41 40 40 42 44 45 46 43 44 44 48 50 52 54 55 55 56 56 56 55 55 53 50 49 51 51 53 50 51 50 50 50 51 53 56 54 57
45 41 37 38 39 41 42 41 41 43 44 44 45 44 44 46 48 49 52 52 52 54 55 55 54 51 50 48 47 47 49 48 47 45 45 47 46 42 45 46 44 47 46 50
39 39 41 43 42 41 43 43 43 46 46 45 45 46 45 46 48 49 49 50 51 51 52 50 48 45 44 44 44 43 37 34 38 44 45 35 36 35 32 38 43 47 53 54
43 45 45 41 40 45 43 43 43 44 45 46 46 46 45 44 46 49 50 50 49 48 46 45 44 43 42 40 40 35 32 33 31 30 33 40 38 41 45 39 35 33 38 41
46 46 44 44 44 45 45 43 41 43 44 46 46 46 45 44 49 50 46 44 43 41 42 42 41 40 40 40 37 35 31 31 29 32 23 26 25 28 31 21 26 32 34 34
48 46 47 46 45 46 42 42 40 40 41 43 45 45 46 47 50 45 39 36 37 39 40 38 37 37 38 38 33 31 32 32 30 30 31 27 21 22 26 28 23 24 23 25
47 44 47 47 47 43 42 42 40 39 37 38 43 45 47 49 43 37 35 36 35 37 35 34 34 34 34 35 35 33 32 33 34 29 28 31 29 18 23 31 33 27 28 28
45 46 45 46 45 45 43 41 40 33 36 34 37 43 43 43 37 36 34 37 37 37 35 36 38 39 39 38 37 34 32 31 33 30 30 28 28 23 18 18 21 26 29 34
44 47 40 43 43 41 39 36 34 30 34 38 35 32 40 38 40 38 37 37 37 42 40 39 39 38 36 37 36 34 31 31 32 33 33 31 30 28 19 20 24 23 24 22
47 44 36 39 33 37 35 27 30 35 39 36 36 39 37 41 41 40 40 37 36 35 36 36 34 34 35 36 35 35 35 35 35 33 34 33 32 32 29 24 23 23 25 26
45 48 44 44 43 42 35 36 35 38 42 44 40 45 41 41 42 41 37 39 37 33 31 32 33 32 36 36 37 36 35 36 36 34 33 33 33 33 33 30 31 31 32 31
46 48 45 47 45 46 47 45 45 48 51 54 52 51 45 45 43 41 43 44 44 45 36 34 34 34 35 35 36 35 36 36 34 33 33 32 30 31 32 31 32 32 34 36
32 33 36 42 40 43 46 44 41 44 49 50 51 48 48 49 42 42 41 39 41 42 36 35 35 35 36 36 35 34 33 32 31 30 30 30 28 28 27 28 29 29 31 31
44 42 44 43 44 47 43 43 42 46 46 49 51 46 43 45 44 40 43 42 38 37 37 38 38 36 35 33 30 29 28 26 25 25 25 24 23 20 19 19 18 17 17 17
43 41 41 41 44 45 47 42 40 43 39 44 42 41 46 43 42 43 42 38 37 37 40 39 35 32 30 27 26 24 22 20 19 18 15 13 11 12 13 16 17 16 12 12
38 39 44 42 46 49 38 40 39 43 45 40 40 40 37 37 39 38 37 34 34 36 35 34 30 27 25 25 22 20 18 17 14 12 11 9 11 11 15 17 16 10 7 6
37 41 45 45 46 45 36 37 43 41 29 32 34 32 34 35 35 33 32 31 31 32 32 27 25 23 22 19 19 14 12 11 12 10 10 13 11 10 8 5 2 2 4 8
36 32 33 33 36 36 31 30 31 25 27 30 32 34 36 34 31 30 28 28 29 28 23 23 20 20 19 17 13 10 10 10 6 6 8 8 7 5 4 3 4 7 10 12
38 33 29 36 31 30 37 22 21 24 30 29 29 35 35 29 26 26 27 27 23 22 21 19 19 18 15 13 12 11 10 10 12 14 11 6 5 5 5 6 9 10 11 11
31 32 36 38 40 32 30 28 31 30 29 30 33 34 29 26 26 26 24 21 21 19 19 18 17 15 14 12 12 11 11 11 11 8 6 5 7 8 8 10 10 12 14 15
26 22 25 25 24 26 25 28 31 31 33 34 33 30 28 24 23 20 20 19 18 20 21 19 18 17 14 12 10 10 13 11 7 7 8 9 10 10 11 13 15 17 19 21
19 22 20 18 19 21 25 29 29 29 32 31 29 26 24 20 19 19 17 17 18 18 17 19 16 16 16 12 11 14 12 10 10 9 8 10 11 13 15 17 20 22 23 24
Wind_Direction
263 264 264 263 266 271 272 274 276 279 279 280 281 283 284 286 283 282 281 280 280 279 279 278 278 278 277 277 276 276 275 275 276 280 283 283 282 282 280 279 276 273 271 268
263 263 261 264 267 269 271 272 273 274 276 280 281 282 282 283 284 284 283 283 282 282 282 281 280 281 280 280 281 282 282 282 283 285 285 284 283 281 279 275 271 268 264 261
259 262 262 265 270 272 269 271 273 275 278 279 278 280 280 284 286 284 283 283 283 284 284 285 285 287 288 289 289 289 289 289 289 287 285 284 279 277 273 269 265 264 261 261
258 261 264 268 270 269 270 271 272 274 277 277 277 278 282 284 285 284 285 285 285 285 285 286 288 289 290 290 291 291 292 290 288 286 283 281 280 273 264 261 262 259 261 260
259 260 266 267 265 267 269 271 273 274 273 274 275 277 280 282 284 286 288 289 290 292 293 294 294 294 294 293 293 293 290 287 285 287 284 283 273 261 259 261 260 260 261 255
258 260 259 262 264 268 272 273 271 271 271 272 273 278 280 284 287 288 288 287 290 291 293 294 294 294 295 294 291 286 285 289 291 283 274 279 262 255 256 262 258 255 263 252
252 253 257 262 267 268 267 267 269 271 272 273 276 278 282 286 286 286 287 288 290 293 295 294 295 295 293 288 282 282 291 292 290 273 267 281 253 256 258 257 262 263 249 249
248 253 259 262 262 263 265 267 269 274 274 274 279 278 281 285 285 286 288 291 294 294 293 294 293 292 289 287 287 288 284 288 296 284 273 267 273 261 269 268 255 259 248 245
250 253 256 259 262 264 267 270 271 271 272 274 277 281 283 284 286 287 290 291 290 291 291 291 289 287 287 287 292 292 290 287 287 290 293 281 271 268 270 267 255 257 244 245
249 255 256 259 261 263 268 270 267 267 271 274 278 280 284 285 286 287 288 288 288 286 286 285 286 288 290 290 292 295 293 288 292 295 291 297 303 272 269 266 251 248 241 246
255 258 262 261 265 272 268 269 268 266 267 271 279 281 287 288 284 281 284 287 280 278 277 279 283 289 291 291 293 294 293 287 286 288 295 301 303 298 259 265 268 250 249 249
257 257 260 266 266 267 269 267 268 263 273 270 271 282 282 279 278 281 289 288 279 278 276 275 281 286 289 292 292 293 292 291 288 287 286 285 286 297 301 288 261 259 262 266
255 258 259 261 263 264 263 262 265 260 259 267 262 275 277 276 273 277 283 280 281 281 273 274 279 284 290 292 293 291 290 291 290 288 286 281 278 274 275 267 252 242 244 250
254 253 252 256 248 252 254 253 243 252 254 259 263 265 272 277 272 277 279 277 283 273 271 277 281 288 291 291 290 291 289 293 293 289 283 279 272 268 261 258 253 256 259 255
250 251 251 252 247 243 250 241 240 243 247 254 257 270 271 281 277 276 280 275 281 265 276 278 281 289 290 289 289 289 291 293 294 288 283 279 272 267 265 258 257 253 254 259
246 252 252 250 251 252 253 255 254 245 251 260 268 269 274 276 278 279 280 274 276 277 280 278 282 286 286 285 287 290 292 292 289 285 279 273 268 265 262 260 259 262 262 259
238 246 250 254 256 257 257 264 258 261 260 268 270 275 275 279 280 280 275 275 272 275 275 275 281 282 283 283 285 290 290 291 286 279 274 270 264 260 255 252 254 254 256 258
249 250 254 260 259 259 264 261 265 265 265 268 272 273 272 279 282 274 275 276 271 270 269 275 280 279 280 281 284 286 289 288 285 282 279 269 263 257 253 252 251 261 263 262
252 253 258 258 260 261 258 268 269 265 263 264 270 273 277 278 272 275 275 269 265 266 270 275 274 274 277 278 279 282 285 279 289 290 285 274 253 230 223 232 241 236 246 259
253 253 255 255 259 261 269 259 261 266 263 265 273 275 276 274 274 272 268 262 262 265 268 267 269 271 273 276 269 279 278 279 284 286 283 259 230 229 228 229 230 222 228 243
254 254 256 258 258 260 262 256 266 269 264 264 271 275 279 281 275 267 260 262 263 261 261 265 264 266 271 260 269 260 268 266 277 265 270 264 245 225 162 141 173 272 289 290
247 251 256 263 262 262 258 259 252 250 254 262 272 282 289 279 269 261 258 255 255 257 259 258 258 262 256 257 242 250 254 244 238 229 196 165 149 146 162 200 261 283 287 290
246 250 251 237 232 246 250 270 271 262 256 262 273 284 280 269 260 255 253 255 255 254 253 248 255 253 244 234 237 223 228 227 214 198 174 168 184 203 227 261 280 286 293 302
255 248 249 247 245 259 267 264 266 264 269 274 275 274 267 259 256 252 250 250 253 250 241 251 244 226 224 230 207 207 226 215 192 178 188 223 231 246 259 276 293 309 315 314
232 243 247 246 246 259 260 254 253 256 263 267 267 263 252 258 250 248 249 250 249 247 250 239 225 220 221 199 200 208 200 191 208 219 227 237 253 269 280 292 308 314 311 305
251 252 233 237 241 258 265 263 262 261 259 256 255 252 249 255 246 244 244 248 250 245 223 208 218 213 202 196 200 195 201 215 224 230 241 251 263 277 282 290 299 305 307 307
Height
5757 5759 5763 5761 5762 5763 5763 5762 5762 5761 5760 5757 5758 5758 5757 5757 5756 5754 5754 5753 5752 5750 5750 5749 5748 5747 5745 5743 5742 5741 5740 5738 5736 5733 5730 5728 5726 5724 5724 5724 5724 5724 5726 5727
5749 5749 5752 5752 5753 5754 5753 5752 5752 5750 5749 5749 5748 5750 5748 5748 5747 5746 5743 5742 5741 5740 5739 5737 5735 5733 5732 5730 5728 5726 5723 5721 5719 5716 5714 5712 5709 5709 5707 5706 5706 5706 5706 5708
5738 5738 5741 5743 5744 5745 5743 5742 5743 5742 5740 5739 5738 5739 5739 5739 5737 5735 5734 5732 5731 5729 5726 5724 5722 5720 5717 5714 5711 5708 5706 5703 5701 5698 5697 5695 5693 5691 5691 5690 5689 5689 5689 5691
5727 5728 5731 5732 5733 5734 5732 5734 5733 5732 5732 5730 5730 5730 5728 5727 5727 5723 5721 5720 5719 5717 5715 5712 5710 5707 5703 5700 5697 5694 5691 5688 5686 5682 5680 5679 5678 5675 5674 5674 5675 5674 5675 5676
5717 5719 5721 5722 5722 5722 5723 5724 5724 5723 5722 5721 5720 5719 5720 5717 5715 5710 5709 5706 5704 5701 5699 5697 5695 5693 5690 5686 5683 5679 5676 5673 5671 5668 5664 5663 5662 5660 5660 5661 5661 5660 5662 5663
5705 5709 5711 5711 5712 5711 5712 5713 5713 5713 5712 5712 5711 5711 5713 5708 5704 5700 5697 5695 5693 5691 5689 5686 5684 5680 5678 5675 5671 5667 5663 5660 5657 5655 5652 5650 5649 5648 5647 5647 5647 5648 5649 5651
5695 5698 5699 5700 5701 5701 5701 5702 5703 5703 5701 5702 5701 5700 5702 5699 5693 5689 5686 5684 5682 5680 5677 5675 5672 5669 5666 5663 5660 5656 5653 5650 5646 5643 5640 5638 5638 5637 5635 5636 5636 5636 5635 5639
5683 5687 5688 5691 5690 5688 5691 5691 5691 5689 5690 5689 5690 5690 5691 5690 5683 5678 5674 5672 5670 5668 5665 5663 5660 5657 5654 5651 5649 5646 5643 5641 5638 5633 5629 5628 5625 5625 5626 5623 5622 5624 5625 5628
5671 5673 5676 5678 5678 5678 5678 5679 5679 5676 5677 5676 5679 5680 5682 5680 5671 5666 5664 5661 5659 5657 5654 5653 5650 5647 5644 5641 5639 5637 5634 5631 5629 5626 5620 5619 5615 5614 5616 5615 5614 5615 5617 5621
5658 5659 5663 5665 5666 5665 5668 5668 5666 5665 5665 5663 5667 5669 5668 5669 5661 5657 5654 5651 5648 5646 5645 5643 5641 5638 5635 5633 5630 5627 5624 5621 5619 5616 5613 5610 5606 5605 5605 5606 5607 5608 5609 5612
5644 5648 5649 5651 5654 5652 5653 5653 5654 5653 5654 5652 5653 5656 5657 5653 5651 5647 5644 5641 5639 5637 5636 5634 5632 5630 5627 5625 5621 5618 5616 5613 5610 5608 5605 5602 5599 5596 5595 5597 5599 5602 5602 5603
5633 5633 5636 5640 5640 5640 5639 5640 5642 5641 5644 5642 5639 5645 5642 5642 5640 5638 5636 5633 5630 5628 5627 5626 5623 5621 5619 5616 5613 5610 5607 5604 5601 5599 5597 5595 5593 5589 5586 5587 5589 5592 5595 5595
5620 5622 5626 5626 5627 5626 5628 5631 5632 5633 5632 5631 5630 5632 5632 5631 5629 5628 5628 5625 5622 5619 5617 5615 5614 5611 5609 5606 5604 5601 5598 5596 5593 5590 5587 5585 5584 5583 5580 5580 5582 5583 5585 5587
5606 5610 5612 5616 5620 5617 5619 5620 5622 5622 5620 5621 5621 5621 5625 5618 5620 5619 5617 5615 5613 5609 5606 5606 5604 5602 5599 5597 5595 5592 5590 5587 5584 5580 5578 5576 5574 5574 5574 5573 5574 5576 5577 5578
5594 5596 5598 5602 5603 5604 5606 5609 5610 5609 5610 5608 5614 5610 5616 5609 5608 5607 5607 5605 5602 5598 5598 5597 5595 5592 5590 5589 5586 5583 5581 5578 5574 5570 5568 5566 5566 5564 5564 5563 5565 5566 5567 5568
5581 5583 5585 5588 5591 5591 5591 5597 5599 5599 5600 5598 5598 5600 5604 5600 5597 5597 5596 5594 5592 5590 5589 5588 5586 5583 5581 5579 5577 5574 5571 5568 5564 5561 5558 5556 5555 5555 5555 5554 5555 5555 5556 5557
5571 5572 5573 5574 5579 5577 5576 5587 5588 5590 5587 5588 5586 5592 5591 5586 5587 5585 5583 5583 5581 5580 5579 5578 5576 5574 5572 5570 5568 5565 5562 5558 5554 5551 5548 5546 5545 5545 5546 5546 5547 5547 5549 5549
5559 5562 5562 5564 5567 5562 5570 5572 5576 5574 5577 5577 5575 5577 5577 5575 5574 5573 5572 5572 5571 5570 5570 5569 5567 5564 5563 5561 5559 5556 5552 5549 5546 5543 5540 5538 5537 5537 5538 5540 5542 5543 5542 5543
5549 5551 5550 5550 5553 5555 5555 5562 5565 5562 5566 5563 5563 5566 5564 5563 5562 5562 5561 5560 5560 5560 5560 5558 5557 5555 5554 5552 5551 5549 5546 5543 5540 5537 5535 5534 5534 5534 5536 5537 5539 5539 5540 5540
5537 5539 5537 5541 5538 5538 5550 5549 5549 5549 5547 5554 5554 5553 5551 5550 5549 5550 5549 5549 5550 5550 5550 5549 5548 5547 5546 5545 5544 5542 5540 5538 5536 5535 5534 5533 5532 5533 5534 5535 5536 5536 5536 5537
5526 5526 5526 5529 5526 5527 5536 5535 5536 5536 5546 5542 5543 5543 5541 5540 5539 5539 5538 5540 5540 5540 5541 5540 5540 5539 5539 5538 5537 5537 5535 5534 5534 5533 5532 5532 5532 5533 5532 5533 5534 5535 5535 5534
5515 5517 5518 5518 5518 5519 5525 5525 5526 5529 5530 5532 5533 5532 5532 5531 5529 5529 5530 5531 5531 5532 5532 5533 5533 5532 5532 5532 5532 5532 5532 5532 5532 5531 5531 5530 5531 5531 5532 5533 5533 5533 5532 5531
5505 5509 5511 5511 5513 5513 5515 5516 5518 5520 5522 5522 5522 5523 5522 5522 5521 5521 5522 5523 5523 5524 5525 5526 5526 5526 5527 5528 5528 5528 5528 5529 5529 5529 5529 5530 5531 5531 5531 5531 5531 5530 5529 5527
5497 5500 5501 5502 5506 5506 5507 5508 5510 5511 5511 5513 5514 5514 5514 5513 5513 5514 5515 5516 5516 5517 5518 5519 5520 5522 5523 5523 5524 5525 5526 5527 5528 5528 5528 5529 5529 5529 5529 5528 5527 5525 5524 5523
5489 5492 5493 5495 5496 5497 5498 5499 5500 5502 5503 5504 5505 5506 5506 5506 5506 5508 5508 5509 5509 5510 5511 5513 5515 5517 5518 5520 5521 5522 5523 5525 5526 5526 5527 5527 5527 5527 5526 5525 5523 5522 5521 5520
5484 5485 5486 5488 5490 5491 5492 5491 5491 5492 5494 5495 5496 5497 5498 5499 5500 5502 5503 5503 5504 5504 5505 5508 5510 5512 5514 5516 5518 5519 5521 5522 5523 5523 5524 5524 5524 5523 5523 5521 5520 5518 5516 5514